Regional Weather Roundup
Issued by NWS Goodland, KS

Home | Current Version | Previous Version | Text Only | Print | Product List | Glossary On
Versions: 1 2 3 4 5 6 7 8 9 10 11 12 13 14 15 16 17 18 19 20 21 22 23 24 25 26 27 28 29 30 31 32 33 34 35 36 37 38 39 40 41 42 43 44 45 46 47 48 49 50
000
ASUS43 KGLD 230408
RWRGLD

GOODLAND FORECAST AREA HOURLY WEATHER ROUNDUP
NATIONAL WEATHER SERVICE GOODLAND KS
900 PM MST MON DEC 22 2014

...OFFICIAL OBSERVATIONS...

CITY           SKY/WX    TMP DP  RH WIND       PRES   REMARKS
GOODLAND KS    PTCLDY    34  24  67 NW22G30   29.71S
HILL CITY KS   PTCLDY    39  24  55 W20       29.64R
IMPERIAL NEB   MOCLDY    36  23  59 NW23G41   29.65S
MCCOOK NEB     MOCLDY    35  25  66 NW15      29.63R
AKRON CO       PTCLDY    27  21  78 NW22G28   29.75S WCI  13
BURLINGTON CO  PTCLDY    33  22  63 NW24G31   29.73R
LIMON CO       MOCLDY    28  21  75 NW24      29.80R WCI  14
$$

...UNOFFICIAL OBSERVATIONS...

CITY           SKY/WX    TMP DP  RH WIND       PRES   REMARKS
COLBY KS       CLEAR     36  28  75 W18       29.69R
GOVE KS          N/A     32  32 100 MISG        N/A
TRIBUNE KS     MOCLDY    37  32  81 W12       29.77R
KIT CARSON CO    N/A     31  25  77 MISG        N/A
YUMA CO          N/A     30  22  73 W25         N/A  WCI  16
$$



USA.gov is the U.S. government's official web portal to all federal, state and local government web resources and services.